Location: Unspecified
(0.0000°N, 0.0000°E)
Time: 07:20:29
(UTC+00:00)

Transit 4A - Pass Details

Date: 03 October 2023
Orbit: 864 x 979 km, 66.8° (Epoch: 05 December)

Event Time Altitude Azimuth Distance (km) Brightness Sun altitude
Rises 21:50:23 0° 312° (NW) 3,550 - -60.1°
Reaches altitude 10° 21:53:37 10° 295° (WNW) 2,588 - -60.9°
Maximum altitude 21:57:49 20° 251° (WSW) 1,958 - -61.9°
Drops below altitude 10° 22:01:58 10° 205° (SSW) 2,543 - -63.0°
Sets 22:05:08 0° 188° (S) 3,469 - -63.7°
